This is the latest recevied weather packets stored in our database for station/object NI0Z. If no packets are shown the sender has not sent any weather packets the latest 10 day(s).
| Time | Temp. | Humidity | Pressure | Rain* | Wind** | Luminosity | Snow |
|---|---|---|---|---|---|---|---|
| 1777151767 | 22.78° C | 57% | - | 0 mm | - | - | - |
| 1777151464 | 22.78° C | 57% | - | 0 mm | - | - | - |
| 1777151160 | 22.78° C | 59% | - | 0 mm | - | - | - |
| 1777150860 | 23.33° C | 58% | - | 0 mm | - | - | - |
| 1777150555 | 22.78° C | 57% | - | 0 mm | - | - | - |
| 1777150251 | 22.78° C | 57% | - | 0 mm | - | - | - |
| 1777149950 | 23.33° C | 55% | - | 0 mm | - | - | - |
| 1777149644 | 23.33° C | 56% | - | 0 mm | - | - | - |
| 1777149342 | 23.33° C | 56% | - | 0 mm | - | - | - |
| 1777149037 | 22.78° C | 54% | - | 0 mm | - | - | - |
| 1777148733 | 23.33° C | 58% | - | 0 mm | - | - | - |
| 1777148429 | 23.33° C | 59% | - | 0 mm | - | - | - |
| 1777148125 | 23.33° C | 58% | - | 0 mm | - | - | - |
| 1777147821 | 23.89° C | 55% | - | 0 mm | - | - | - |
| 1777147517 | 23.89° C | 56% | - | 0 mm | - | - | - |
| 1777147213 | 23.89° C | 56% | - | 0 mm | - | - | - |
| 1777146909 | 23.89° C | 55% | - | 0 mm | - | - | - |
| 1777146605 | 23.89° C | 56% | - | 0 mm | - | - | - |
| 1777146301 | 23.89° C | 56% | - | 0 mm | - | - | - |
| 1777145997 | 23.89° C | 57% | - | 0 mm | - | - | - |
| 1777145694 | 23.89° C | 53% | - | 0 mm | - | - | - |
| 1777145389 | 23.89° C | 56% | - | 0 mm | - | - | - |
| 1777145084 | 24.44° C | 54% | - | 0 mm | - | - | - |
| 1777144779 | 23.89° C | 58% | - | 0 mm | - | - | - |
| 1777144478 | 23.33° C | 59% | - | 0 mm | - | - | - |
* Rain latest hour (hover to see other rain measurements)
** Current wind speed in m/s (hover to see current wind gust speed)